Regional Weather Roundup
Issued by NWS

Home | Current Version | Previous Version | Graphics & Text | Print | Product List | Glossary On
Versions: 1 2 3 4 5 6 7 8 9 10 11 12 13 14 15 16 17 18 19 20 21 22 23 24 25 26 27 28 29 30 31 32 33 34 35 36 37 38 39 40 41 42 43 44 45 46 47 48 49 50
000
ASUS43 KBIS 290510
RWRND

NORTH DAKOTA REGIONAL WEATHER ROUNDUP
NATIONAL WEATHER SERVICE BISMARCK ND
1200 AM CDT FRI APR 29 2016

NOTE: "FAIR" INDICATES FEW OR NO CLOUDS BELOW 12,000 FEET WITH NO
SIGNIFICANT WEATHER AND/OR OBSTRUCTIONS TO VISIBILITY.


NDZ001>003-009>011-017-290600-
NORTHWEST NORTH DAKOTA

CITY           SKY/WX    TMP DP  RH WIND       PRES   REMARKS
WILLISTON      CLOUDY    43  27  53 N3        30.16F
MINOT          CLOUDY    46  21  37 NE6       30.18S
MINOT AFB      CLOUDY    44  21  39 E9        30.18S
$$

NDZ018>021-031>035-040>046-290600-
SOUTHWEST NORTH DAKOTA

CITY           SKY/WX    TMP DP  RH WIND       PRES   REMARKS
BISMARCK       CLOUDY    46  32  58 NE8       30.16S
DICKINSON      MOCLDY    40  28  62 E5        30.12S
GARRISON         N/A     40  23  50 NE6       30.17S
HETTINGER ARPT CLOUDY    39  36  89 NW5       30.14F
$$

NDZ004>008-012>016-024-026-027-054-290600-
NORTHEAST NORTH DAKOTA

CITY           SKY/WX    TMP DP  RH WIND       PRES   REMARKS
GRAND FORKS    CLOUDY    35  28  75 N6        30.16S
GRND FRKS AFB  CLOUDY    37  27  67 N5        30.17R
DEVILS LAKE    PTCLDY    42  25  50 NE8       30.19S
$$

NDZ022-023-025-028>030-036>039-047>053-290600-
SOUTHEAST NORTH DAKOTA

CITY           SKY/WX    TMP DP  RH WIND       PRES   REMARKS
FARGO          CLOUDY    46  28  49 NE7       30.13R
JAMESTOWN      PTCLDY    41  28  60 NE9       30.14S
$$




USA.gov is the U.S. government's official web portal to all federal, state and local government web resources and services.